Regional Weather Roundup
Issued by NWS Wakefield, VA

Home | Current Version | Previous Version | Graphics & Text | Print | Product List | Glossary On
Versions: 1 2 3 4 5 6 7 8 9 10 11 12 13 14 15 16 17 18 19 20 21 22 23 24 25 26 27 28 29 30 31 32 33 34 35 36 37 38 39 40 41 42 43 44 45 46 47 48 49 50
000
ASUS41 KAKQ 280810
RWRAKQ

REGIONAL WEATHER ROUNDUP
NATIONAL WEATHER SERVICE WAKEFIELD VA
400 AM EDT MON JUL 28 2014

Note: "fair" indicates few or no clouds below 12,000 feet with no
significant weather and/or obstructions to visibility. * = Denotes
station may not report precipitation (e.g., rain,snow,etc.),
thunder or fog.

VAZ042-051-052>054-056-280900-
NORTHERN VIRGINIA

CITY           SKY/WX    TMP DP  RH WIND       PRES   REMARKS
WASH NATIONAL  CLOUDY    77  68  73 W6        29.60S
DULLES         MOCLDY    67  66  97 CALM      29.60F
FORT BELVOIR   CLOUDY    74  70  88 CALM      29.60F
QUANTICO       CLOUDY    76  71  85 CALM      29.60F
FREDERICKSBRG* CLOUDY    78  72  83 SW7       29.59F
STAFFORD*      MOCLDY    76  76 100 SW5       29.64S
WARRENTON      CLOUDY    71  71 100 CALM      29.61R FOG
CULPEPER*        N/A    N/A N/A N/A CALM      29.61S FOG
MANASSAS*      MOCLDY    70  68  94 CALM      29.60F
LEESBURG*      PTCLDY    68  68 100 CALM      29.61F
WINCHESTER     PTCLDY    68  64  88 CALM      29.61F
$$

VAZ048-049-060>072-079>083-280900-
CENTRAL AND SOUTH CENTRAL VIRGINIA...AND NORTH CENTRAL NORTH CAROLINA

CITY           SKY/WX    TMP DP  RH WIND       PRES   REMARKS
RICHMOND       MOCLDY    79  71  76 SW12      29.63F
CHESTERFIELD*  MOSUNNY  N/A N/A N/A SW8       29.65F
HANOVER        PTCLDY    78  70  76 SW9       29.64F
TAPPAHANNOCK*  PTCLDY    76  70  83 SW5       29.62S
CHARLOTTSVILLE MOCLDY    75  62  64 VRB6      29.63S
ORANGE*        PTCLDY    72  70  94 S3        29.63F
LOUISA*        MOCLDY    73  72  94 W3        29.63F
FARMVILLE*     PTCLDY    77  66  69 SW6       29.65S
SOUTH HILL*    CLOUDY    79  72  78 SW9       29.75F
ROANOKE RAPIDS NOT AVBL
RALEIGH        CLOUDY    81  63  54 W8        29.75F
$$

VAZ088>098-280900-
SOUTHEAST VIRGINIA

CITY           SKY/WX    TMP DP  RH WIND       PRES   REMARKS
NORFOLK        PTCLDY    78  72  81 SW14      29.65F
VIRGINIA BEACH MOCLDY    79  73  82 SW14      29.65F
NORFOLK NAVAL  CLOUDY    80  73  79 SW10      29.66F
WEST POINT*    CLEAR     79  72  80 SW6       29.63F
NEWPORT NEWS   PTCLDY    82  73  74 SW14      29.64F
LANGLEY AFB    PTCLDY    80  74  84 SW14G20   29.63F
FORT EUSTIS    PTCLDY    78  77  96 SW9       29.63S
WILLIAMSBURG*  PTCLDY    81  73  78 W6        29.65S
FRANKLIN*      MOCLDY    79  72  78 SW8       29.68S
WAKEFIELD      MOCLDY    78  72  81 SW7       29.66F
$$

VAZ020-022-025-037-045-280900-
WESTERN AND SOUTHWEST VIRGINIA

CITY           SKY/WX    TMP DP  RH WIND       PRES   REMARKS
STAUNTON*      MOCLDY    72  62  71 SW6       29.69S
HOT SPRINGS VA FOG       60  58  94 W20G29    29.84F VSB 1/4
LYNCHBURG      MOCLDY    73  65  75 SW6       29.71F
DANVILLE       CLOUDY    78  65  63 W22G29    29.76R
MARTINSVILLE   CLOUDY    73  65  75 W5        29.81R
ROANOKE        MOCLDY    73  64  73 W10G21    29.76F
BLACKSBURG     MOCLDY    68  66  94 W5          N/A
DUBLIN*        CLOUDY    70  65  85 W12G17    29.85F
MARION*        CLOUDY   N/A N/A N/A SW10      29.93S
HILLSVILLE*    MOCLDY    66  62  89 W12G25    29.88S
RICHLANDS*     CLOUDY    67  64  93 SW6       29.92S
WISE*          PTCLDY    63  63 100 SW9       29.95S
ABINGDON*      CLOUDY    67  67  98 W7        29.92S
$$

MDZ021>025-VAZ099-100-280900-
SOUTHERN MARYLAND AND THE DELMARVA PENINSULA

CITY           SKY/WX    TMP DP  RH WIND       PRES   REMARKS
PATUXENT RIVER MOCLDY    77  71  82 SW9       29.59S
BAY BRIDGE APT   N/A     77  72  83 W8        29.59R
LEONARDTOWN    MOCLDY    77  70  78 SW6       29.62S
DOVER          MOCLDY    75  75 100 S5        29.56F
GEORGETOWN     MOCLDY    73  71  93 S9        29.59F
EASTON         CLOUDY    78  78 100 CALM      29.63S
CAMBRIDGE      MOCLDY    79  72  78 W7        29.59S
SALISBURY      NOT AVBL
OCEAN CITY     PTCLDY    77  73  87 SW7       29.60F
WALLOPS ISLAND CLEAR     79  72  79 SW12      29.61F
ACCOMACK*        N/A     79  72  78 SW10      29.63R
$$

NCZ012>017-030>032-280900-
EASTERN NORTH CAROLINA

CITY           SKY/WX    TMP DP  RH WIND       PRES   REMARKS
ELIZABETH CITY MOCLDY    79  74  84 SW13      29.69F
AHOSKIE*       CLOUDY    76  72  86 CALM      29.70S
EDENTON*       MOCLDY    81  74  78 SW12      29.71S
CURRITUCK*     MOCLDY    81  72  74 SW8       29.69F
KILL DEVIL HLS MOCLDY    80  76  86 SW7       29.70S
MANTEO         NOT AVBL
CAPE HATTERAS  MOCLDY    81  80  97 SW17G25   29.76F
GOLDSBORO      CLOUDY    80  78  92 W9        29.73R
WASHINGTON     MOCLDY    79  74  84 S5        29.72F
GREENVILLE     CLOUDY    81  73  78 SW7       29.76R
NEW BERN       MOCLDY    83  75  77 SW8       29.77S
WILMINGTON     MOCLDY    84  74  71 SW13      29.78F
$$

VAZ048-280900-
ELSEWHERE

CITY           SKY/WX    TMP DP  RH WIND       PRES   REMARKS
HARRISBURG PA  CLOUDY    67  64  90 W6        29.56F
BALTIMORE      CLOUDY    70  69  97 CALM      29.58F
ANNAPOLIS      CLOUDY    77  72  84 W5        29.58S
ANDREWS AFB    CLOUDY    76  71  84 W3        29.60S
WILMINGTON DE  MOCLDY    69  67  93 CALM      29.58S
PHILADELPHIA   CLOUDY    70  66  87 S8        29.58S
WILDWOOD NJ*   MOCLDY    73  70  88 S8        29.60F
ATLANTIC CITY  HVY RAIN  68  67  96 NW13      29.60S FOG
HENDERSON NC   CLOUDY    79  65  63 SW10G18   29.73F
GREENSBORO     CLOUDY    73  63  70 W15G22    29.80F
ROCKY MOUNT    CLOUDY    82  69  64 W10G18    29.72F
FAYETTEVILLE   CLOUDY    83  72  69 W13       29.79R
CHARLOTTE      LGT RAIN  70  66  87 CALM      29.86F
$$

VAZ100-280900-
MARINE

STATION/POSITION TIME  TEMP    WIND        PRES    WAVE   SWELL
                       AIR SEA DIR/SP/G            HT/PER HT/PER
                 (UTC) (F)     (DEG/KT/KT) (MB)    (FT/S) (FT/S)
44066 TX TWR #4  0700   75 74  200/ 14/ 17 1003.6F   4/ 5   2/10
CAPE MAY NJ      0800   74 78  160/  8/ 10 1001.3F
LEWES DE         0800   76 71  200/  6/ 10 1001.3F
15NM E FENWICK I 0800   76 74              1002.2F   3/ 5
OCEAN-CITY-INLET 0800   76 70  230/ 10/ 12 1001.7F
WACHAPREAGUE VA  0800   79 79  230/  7/  9 1003.0R
THOMAS POINT MD  0800   78 79  260/ 11/ 12 1002.4S
GOOSES REEF MD   0800   79     270/ 14/ 17 1002.4S
COVE POINT MD    0800   78     270/ 11/ 14 1002.0S
SOLOMONS ISLAND  0800      80                N/A
BISHOPS HEAD MD  0800   79 78  250/ 17/ 21 1001.6R
PINEY POINT MD   0800          260/ 11/ 13   N/A
POTOMAC MD       0800   80     250/ 16/ 19 1001.2F
CAMBRIDGE MD     0800   79 80  250/  9/ 12 1001.6F
LEWISETTA VA     0800   78 80  250/  9/ 11 1002.0S
RAPPAHANNOCK LGT 0800          210/ 20/ 23 1003.1F
STINGRAY PT      0800   80     240/ 16/ 19 1003.5F
YORK RVR RNG VA  0800   81     240/ 18/ 21 1002.6F
YORKTOWN VA      0800   80 80  230/ 11/ 12 1003.0F
JAMESTOWN VA     0800   78     250/ 12/ 17   N/A
DOMINION TERM VA 0800   80     230/ 15/ 18 1003.8F
KIPTOPEKE VA     0800      81  230/ 15/ 18   N/A
CHES BAY BRIDGE  0800   80 78  200/ 19/ 22 1003.0F
CAPE HENRY VA    0800   80     210/ 10/ 13 1002.7F
WILLOUBY STN VA  0800          220/ 18/ 19 1002.9S
S CRANEY ISL VA  0800          200/  9/ 16 1004.0S
CAPE HENRY BUOY  0800      76                N/A     3/ 5
1ST LANDING BUOY 0800   81     230/ 19/ 23 1003.8F
CAPE CHARLES BUO 0800      75                N/A     3/ 4
OFFSHORE WE BUOY 0800      78                N/A     4/ 4
64NM E OF VA BCH 0800   80 78  210/ 19/ 23 1004.3F   3/ 5   2/10
DUCK PIER NC     0800   82 67  220/ 15/ 20 1004.9F
44056 DUCK FRF   0800                        N/A     2/10
OREGON INLET NC  0800   82 82  200/ 20/ 23 1006.1F
HATTERAS NC      0800   81 82  220/ 13/ 20 1008.0F
DIAMOND SHLS NC  0800          VRB 21/ 25  1007.7F   5/ 5   2/10
CAPE LOOKOUT NC  0700   82     220/ 16/ 21 1008.5F
$$



USA.gov is the U.S. government's official web portal to all federal, state and local government web resources and services.